Custer, SD

4:36 PM MDT on September 21, 2017 (GMT -0600)
Custer County

Weather History for KCUT - December, 2013

Change the Weather History Date:

Saturday, December 7, 2013

  Actual Average Record
Temperature  
Mean Temperature -6 °F 24 °F  
Max Temperature 1 °F 34 °F 56 °F (1970)
Min Temperature -14 °F 14 °F -17 °F (2005)
Degree Days  
Heating Degree Days 71 41  
Month to date heating degree days 387 284  
Since 1 July heating degree days 2499 2465  
Cooling Degree Days 0 0  
Month to date cooling degree days 0 0  
Year to date cooling degree days 187 177  
Moisture  
Dew Point -11 °F    
Average Humidity 82    
Maximum Humidity 91    
Minimum Humidity 72    
Precipitation  
Precipitation 0.02 in 0.01 in 0.40 in (1966)
Month to date precipitation 0.30 0.08  
Year to date precipitation 21.72 18.65  
Sea Level Pressure  
Sea Level Pressure 30.09 in    
Wind  
Wind Speed 2 mph (SSE)    
Max Wind Speed 8 mph    
Max Gust Speed 13 mph    
Visibility 5 miles    
Events Snow    
T = Trace of Precipitation, MM = Missing Value Source: NWS Daily Summary

Daily Weather History Graph

Daily Weather History Graph

Search for Another Location

Airport or City:

Trip Planner

Search our weather history database for the weather conditions in past years. The results will help you decide how hot, cold, wet, or windy it might be!

Date:

Astronomy

Dec. 07, 2013 Rise Set
Actual Time 7:14 AM MST 4:17 PM MST
Civil Twilight 6:42 AM MST 4:49 PM MST
Nautical Twilight 6:06 AM MST 5:25 PM MST
Astronomical Twilight 5:31 AM MST 6:00 PM MST
Moon 10:54 AM MST (12/7) 10:09 PM MST (12/7)
Length of Visible Light 10h 07m
Length of Day
9h 02m
Waxing Crescent, 30% of the Moon is Illuminated
Dec 7
Waxing Crescent
Dec 9
First Quarter
Dec 17
Full
Dec 25
Last Quarter
Jan 1
New

Hourly Weather History & Observations

Time (MST) Temp. Windchill Dew Point Humidity Pressure Visibility Wind Dir Wind Speed Gust Speed Precip Events Conditions
12:01 AM -13.0 °F - -16.6 °F 84% 30.10 in 7.0 mi Calm Calm - N/A   Overcast
12:53 AM -9.9 °F -19.2 °F -14.1 °F 82% 30.48 in 3.0 mi SSW 3.5 mph - 0.00 in Snow Light Snow
1:04 AM -9.4 °F -22.7 °F -14.8 °F 77% 30.08 in 2.5 mi SSW 5.8 mph - 0.00 in Snow Light Snow
1:14 AM -9.4 °F - -14.8 °F 77% 30.08 in 4.0 mi Calm Calm - 0.00 in   Overcast
1:53 AM -9.9 °F - -15.0 °F 78% 30.48 in 3.0 mi Calm Calm - 0.00 in Snow Light Snow
2:53 AM -11.0 °F - -16.1 °F 78% 30.48 in 8.0 mi Calm Calm - 0.00 in   Overcast
3:07 AM -13.0 °F - -16.6 °F 84% 30.07 in 10.0 mi Calm Calm - N/A   Mostly Cloudy
3:46 AM -11.2 °F - -16.6 °F 77% 30.05 in 6.0 mi Calm Calm - N/A   Haze
3:53 AM -11.9 °F - -17.0 °F 78% 30.48 in 7.0 mi Calm Calm - N/A   Overcast
4:53 AM -11.9 °F - -17.0 °F 78% 30.48 in 10.0 mi Calm Calm - N/A   Overcast
5:53 AM -9.9 °F - -16.1 °F 74% 30.47 in 5.0 mi Calm Calm - N/A   Haze
6:48 AM -11.2 °F -20.6 °F -16.6 °F 77% 30.02 in 9.0 mi ESE 3.5 mph - N/A   Overcast
6:53 AM -11.0 °F - -16.1 °F 78% 30.47 in 10.0 mi Calm Calm - N/A   Overcast
7:18 AM -11.2 °F - -16.6 °F 77% 30.01 in 5.0 mi Calm Calm - N/A   Haze
7:34 AM -9.4 °F - -14.8 °F 77% 30.01 in 2.5 mi Calm Calm - 0.00 in Snow Light Snow
7:46 AM -9.4 °F - -14.8 °F 77% 30.01 in 2.5 mi Calm Calm - 0.00 in Snow Light Snow
7:53 AM -9.0 °F - -15.0 °F 75% 30.45 in 3.0 mi Calm Calm - 0.00 in   Haze
8:08 AM -9.4 °F - -14.8 °F 77% 30.01 in 2.5 mi Calm Calm - N/A   Haze
8:26 AM -7.6 °F - -13.0 °F 77% 30.01 in 3.0 mi Calm Calm - N/A   Haze
8:53 AM -8.0 °F - -13.0 °F 79% 30.45 in 4.0 mi Calm Calm - N/A   Haze
9:53 AM -5.1 °F - -8.0 °F 87% 30.43 in 6.0 mi Calm Calm - N/A   Overcast
10:53 AM -2.0 °F - -5.1 °F 87% 30.38 in 7.0 mi Calm Calm - N/A   Overcast
11:20 AM 1.4 °F -9.9 °F -2.2 °F 85% 29.96 in 9.0 mi South 5.8 mph - N/A   Overcast
11:53 AM -0.9 °F -12.7 °F -5.1 °F 83% 30.35 in 7.0 mi Variable 5.8 mph - N/A   Overcast
12:53 PM -0.0 °F -11.6 °F -5.1 °F 79% 30.30 in 9.0 mi Variable 5.8 mph - N/A   Overcast
1:53 PM -0.9 °F -12.7 °F -6.0 °F 79% 30.27 in 5.0 mi SSE 5.8 mph - N/A   Haze
2:53 PM -0.9 °F -12.7 °F -5.1 °F 83% 30.24 in 8.0 mi South 5.8 mph - N/A   Overcast
3:40 PM -2.2 °F -14.2 °F -5.8 °F 85% 29.85 in 6.0 mi South 5.8 mph - N/A   Overcast
3:53 PM -2.9 °F -16.5 °F -7.1 °F 82% 30.26 in 5.0 mi South 6.9 mph - N/A   Overcast
4:53 PM -4.0 °F - -8.0 °F 83% 30.24 in 9.0 mi Calm Calm - N/A   Overcast
5:09 PM -4.0 °F -12.4 °F -7.6 °F 85% 29.84 in 9.0 mi SE 3.5 mph - N/A   Overcast
5:19 PM -4.0 °F -16.3 °F -7.6 °F 85% 29.84 in 7.0 mi SSE 5.8 mph - N/A   Overcast
5:53 PM -4.0 °F -16.3 °F -8.0 °F 83% 30.22 in 6.0 mi South 5.8 mph - N/A   Overcast
6:16 PM -5.8 °F - -7.6 °F 92% 29.82 in 5.0 mi Calm Calm - 0.00 in Snow Light Snow
6:50 PM -5.8 °F -16.7 °F -9.4 °F 84% 29.82 in 2.5 mi South 4.6 mph - 0.00 in Snow Light Snow
6:53 PM -5.1 °F - -8.0 °F 87% 30.22 in 2.0 mi Calm Calm - 0.00 in Snow Light Snow
7:22 PM -5.8 °F -14.5 °F -9.4 °F 84% 29.81 in 2.5 mi Variable 3.5 mph - 0.00 in Snow Light Snow
7:50 PM -5.8 °F - -9.4 °F 84% 29.81 in 1.5 mi Calm Calm - 0.00 in Snow Light Snow
7:53 PM -6.0 °F -16.9 °F -9.9 °F 83% 30.20 in 1.5 mi Variable 4.6 mph - 0.00 in Snow Light Snow
8:06 PM -5.8 °F -14.5 °F -9.4 °F 84% 29.80 in 2.5 mi Variable 3.5 mph - 0.01 in Snow Light Snow
8:20 PM -5.8 °F -14.5 °F -9.4 °F 84% 29.79 in 3.0 mi SSE 3.5 mph - 0.01 in Snow Light Snow
8:38 PM -5.8 °F - -9.4 °F 84% 29.79 in 2.5 mi Calm Calm - 0.01 in Snow Light Snow
8:45 PM -5.8 °F - -9.4 °F 84% 29.79 in 5.0 mi Calm Calm - 0.01 in Snow Light Snow
8:53 PM -6.0 °F -14.7 °F -9.9 °F 83% 30.18 in 4.0 mi South 3.5 mph - 0.01 in Snow Light Snow
9:05 PM -5.8 °F -14.5 °F -9.4 °F 84% 29.78 in 5.0 mi Variable 3.5 mph - 0.00 in Snow Light Snow
9:30 PM -5.8 °F -16.7 °F -9.4 °F 84% 29.77 in 2.0 mi SSE 4.6 mph - 0.00 in Snow Light Snow
9:43 PM -5.8 °F -14.5 °F -9.4 °F 84% 29.77 in 1.8 mi SSE 3.5 mph - 0.00 in Snow Light Snow
9:53 PM -6.0 °F -18.6 °F -9.9 °F 83% 30.14 in 2.5 mi South 5.8 mph - 0.00 in Snow Light Snow
10:11 PM -5.8 °F -16.7 °F -9.4 °F 84% 29.76 in 2.5 mi Variable 4.6 mph - 0.01 in Snow Light Snow
10:39 PM -5.8 °F -19.9 °F -9.4 °F 84% 29.75 in 2.5 mi South 6.9 mph - 0.01 in Snow Light Snow
10:51 PM -5.8 °F -14.5 °F -9.4 °F 84% 29.75 in 3.0 mi Variable 3.5 mph - 0.01 in Snow Light Snow
10:53 PM -6.0 °F -16.9 °F -9.9 °F 83% 30.11 in 3.0 mi SSW 4.6 mph - 0.01 in Snow Light Snow
11:53 PM -6.0 °F - -9.0 °F 87% 30.08 in 4.0 mi Calm Calm - 0.00 in Snow Light Snow